User: anonymous   Login
Location: Mentone
(34.5413°N, 85.5351°W)
Time: 10:29:37
(UTC-05:00)
Language:

A-11 Canister half - Orbit

View from above orbital plane
View from above orbital plane
View from above satellite
View from above satellite

Ground track
Ground track

The orbit data is extracted from the following two-line orbital elements,

1 00053U 60009E   17232.27588267 -.00000084  00000-0  00000+0 0  9995
2 00053  47.2751 201.9218 0100275 271.8835  87.0472 12.17204189542844
Epoch (UTC): 20 August 2017 06:37:16
Eccentricity: 0.0100275
inclination: 47.2751°
perigee height: 1524 km
apogee height: 1685 km
right ascension of ascending node: 201.9218°
argument of perigee: 271.8835°
revolutions per day: 12.17204189
mean anomaly at epoch: 87.0472°
orbit number at epoch: 54284

The dashed part of the orbit path shows where the satellite is in the earth's shadow,  

DLR